Regional Weather Roundup
Issued by NWS Upton, NY

Current Version | Previous Version | Graphics & Text | Print | Product List | Glossary Off
Versions: 1 2 3 4 5 6 7 8 9 10 11 12 13 14 15 16 17 18 19 20 21 22 23 24 25 26 27 28 29 30 31 32 33 34 35 36 37 38 39 40 41 42 43 44 45 46 47 48 49 50

000
ASUS41 KOKX 031404
RWROKX

REGIONAL WEATHER ROUNDUP
NATIONAL WEATHER SERVICE NEW YORK NY
1000 AM EDT THU SEP 03 2015

NOTE: "FAIR" INDICATES FEW OR NO CLOUDS BELOW 12,000 FEET WITH NO
SIGNIFICANT WEATHER AND/OR OBSTRUCTIONS TO VISIBILITY.

NYZ071-072-176-178-NJZ106-104-031500-
NEW YORK CITY METRO AREA


CITY           SKY/WX    TMP DP  RH WIND       PRES   REMARKS
CENTRAL PARK   SUNNY     81  64  56 CALM      29.92R
LAGUARDIA APRT MOSUNNY   82  65  56 NE7       29.88S
KENNEDY INTL   MOSUNNY   83  65  54 N10       29.89S
NEWARK/LIBERTY MOSUNNY   84  66  54 N8        29.88S
BRNX BOT. GARD   N/A     81  64  57 E2        29.89F
TETERBORO      SUNNY     81  64  56 NE3       29.88S
$$

NYZ177-179-078>081-031500-
LONG ISLAND NEW YORK

CITY           SKY/WX    TMP DP  RH WIND       PRES   REMARKS
FARMINGDALE    SUNNY     83  65  54 N8        29.88S
ISLIP          MOSUNNY   82  67  60 NE5       29.87S
SHIRLEY        SUNNY     82  68  62 N6        29.88S
WESTHAMPTON    CLOUDY    77  72  84 CALM      29.89F
MONTAUK POINT    N/A     76  72  87 VRB6      29.89R
$$

NYZ052-065-067-031500-
HUDSON VALLEY

CITY           SKY/WX    TMP DP  RH WIND       PRES   REMARKS
WHITE PLAINS   SUNNY     80  65  59 N13       29.89S
NEWBURGH       SUNNY     77  68  73 CALM      29.93S HAZE
MONTGOMERY     SUNNY     77  67  71 CALM      29.92R
POUGHKEEPSIE   SUNNY     77  66  68 N5        29.91R
ALBANY         MOSUNNY   75  65  70 CALM      29.92S
$$

NJZ001-105-106-008-010-013-015-019>022-104-031500-
NEW JERSEY

CITY           SKY/WX    TMP DP  RH WIND       PRES   REMARKS
NEWARK/LIBERTY MOSUNNY   84  66  54 N8        29.88S
TETERBORO      SUNNY     81  64  56 NE3       29.88S
CALDWELL       SUNNY     80  66  62 VRB5      29.90S
MORRISTOWN     SUNNY     82  70  65 E3        29.90S HAZE
SOMERVILLE     SUNNY     81  67  62 VRB7      29.88S
SUSSEX         NOT AVBL
ANDOVER          N/A     76  68  76 VRB3      29.94R
TRENTON        SUNNY     82  68  62 VRB5      29.90S
MILLVILLE      SUNNY     83  68  60 NW6       29.91R
ATLANTIC CITY  SUNNY     85  68  56 N8        29.90R
WRIGHTSTOWN    SUNNY     82  70  67 N6        29.87S
TOMS RIVER     SUNNY     81  68  65 N6        29.89S
BELMAR         SUNNY     81  64  57 NW8       29.89S
$$

PAZ047>061-062-071-031500-
EASTERN PENNSYLVANIA

CITY           SKY/WX    TMP DP  RH WIND       PRES   REMARKS
PHILADELPHIA   PTSUNNY   85  64  49 NW9       29.91S
ALLENTOWN      SUNNY     80  68  66 VRB3      29.93R
SCRANTON       SUNNY     76  66  71 CALM      29.96F HAZE
$$

CTZ002-004>006-009-010-012-RIZ004-006-007-MAZ004-011-015-031500-
SOUTHERN NEW ENGLAND
 IN CT

CITY           SKY/WX    TMP DP  RH WIND       PRES   REMARKS
BRADLEY INTL   MOSUNNY   77  67  71 N3        29.88F
HARTFORD       SUNNY     78  68  71 N6        29.88S
DANBURY        SUNNY     80  64  58 VRB6      29.91S
WTRBRY/OXFORD  SUNNY     77  64  65 N6        29.93R HAZE
BRIDGEPORT     SUNNY     81  67  62 N6        29.88R
MERIDEN        SUNNY     80  66  62 NW5       29.88S
NEW HAVEN      MOSUNNY   79  67  66 N5        29.88S
CHESTER        NOT AVBL
GROTON         SUNNY     77  69  76 S5        29.87S
WILLIMANTIC    MOSUNNY   77  66  68 CALM      29.89S

 IN RI

CITY           SKY/WX    TMP DP  RH WIND       PRES   REMARKS
PROVIDENCE     PTSUNNY   82  66  58 CALM      29.87S
BLOCK ISLAND   MOSUNNY   77  73  88 W7        29.88S
WESTERLY       SUNNY     80  67  64 CALM      29.88S

 IN MA

CITY           SKY/WX    TMP DP  RH WIND       PRES   REMARKS
BOSTON         MOSUNNY   80  66  62 N5        29.87R
WORCESTER      SUNNY     79  63  57 NE9       29.92R
WESTFIELD      SUNNY     76  67  73 VRB3      29.89S
PROVINCETOWN     N/A     75  64  69 W3        29.86S
NANTUCKET      NOT AVBL
$$

ANZ330-335-338-340-345-350-353-355-031500-
COASTAL MARINE OBSERVATIONS


STATION/POSITION TIME  SKY/WX   TEMP    WIND        PRES    VSBY  WAVE
                                AIR SEA DIR/SP/G                  HT/PER
                 (UTC)          (F)     (DEG/KT/KT) (MB)    (MI)  (FT/S)
NY HARB ENTRANCE 1350            77 77  360/  8/ 10 1011.3          1/12
4S FIRE IS       NOT AVBL
20S FIRE ISLAND  1250            75 75  280/  2/  4 1011.1          1/13
GREAT SOUTH BAY  1300            74 79   60/  4/  6   N/A
23SW MTP         1350            74 73  260/  6/  6 1011.1          2/ 6
HUDSON CANYON    NOT AVBL
KINGS POINT      1300            76 75   10/  2/  5 1011.3
EXECUTION ROCKS  1300            78     110/  2/  4   N/A
CENTRAL LI SOUND NOT AVBL
EASTERN LI SOUND 1300            78 71  310/  2/  4   N/A
ROBBINS REEF     1300            76     360/  4/  5 1010.8
$$


>>>>>>>>>>>>>>>>>>>>>>>>>>>> KEY <<<<<<<<<<<<<<<<<<<<<<<<<<<
>                                                          <
>     SKY/WX - SKY CONDITION/PRESENT WEATHER               <
>     TMP    - TEMPERATURE IN FAHRENHEIT                   <
>     DP     - DEWPOINT IN FAHRENHEIT                      <
>     RH     - RELATIVE HUMIDITY IN PERCENT                <
>     WIND   - DIRECTION AND SPEED IN MPH                  <
>     PRES   - MEAN SEA LEVEL PRESSURE IN INCHES OF HG     <
>     WCI    - WIND CHILL INDEX                            <
>     VSB    - VISIBILITY IN MILES                         <
>     HX     - HEAT INDEX                                  <
>     TC     - TEMPERATURE IN CELSIUS                      <
>     VRB    - VARIABLE WIND DIRECTION                     <
>                                                          <
>>>>>>>>>>>>>>>>>>>>>>>>>>>> KEY <<<<<<<<<<<<<<<<<<<<<<<<<<<





USA.gov is the U.S. government's official web portal to all federal, state and local government web resources and services.